This is the latest recevied weather packets stored in our database for station/object EA2MKR. If no packets are shown the sender has not sent any weather packets the latest 10 day(s).
| Time | Temp. | Humidity | Pressure | Rain* | Wind** | Luminosity | Snow |
|---|---|---|---|---|---|---|---|
| 1777296416 | 21.67° C | 56% | 954 hPa | 0 mm | - | - | - |
| 1777296116 | 21.67° C | 57% | 954.1 hPa | 0 mm | - | - | - |
| 1777295815 | 22.22° C | 57% | 954.1 hPa | 0 mm | - | - | - |
| 1777295516 | 21.67° C | 56% | 954.1 hPa | 0 mm | - | - | - |
| 1777295286 | 22.22° C | 59% | 954.2 hPa | 0 mm | - | - | - |
| 1777294916 | 21.67° C | 59% | 954.4 hPa | 0 mm | - | - | - |
| 1777294615 | 21.11° C | 60% | 954.5 hPa | 0 mm | - | - | - |
| 1777294315 | 20.56° C | 61% | 954.4 hPa | 0 mm | - | - | - |
| 1777294015 | 20.56° C | 61% | 954.5 hPa | 0 mm | - | - | - |
| 1777293715 | 20.56° C | 62% | 954.6 hPa | 0 mm | - | - | - |
| 1777293415 | 20.56° C | 62% | 954.6 hPa | 0 mm | - | - | - |
| 1777293114 | 20.56° C | 62% | 954.7 hPa | 0 mm | - | - | - |
| 1777292814 | 20.56° C | 60% | 954.7 hPa | 0 mm | - | - | - |
| 1777292515 | 20.56° C | 62% | 954.8 hPa | 0 mm | - | - | - |
| 1777292285 | 20.56° C | 60% | 954.8 hPa | 0 mm | - | - | - |
| 1777291914 | 21.11° C | 61% | 954.8 hPa | 0 mm | - | - | - |
| 1777291614 | 21.11° C | 60% | 954.8 hPa | 0 mm | - | - | - |
| 1777291315 | 21.11° C | 58% | 954.8 hPa | 0 mm | - | - | - |
| 1777291014 | 21.11° C | 61% | 954.8 hPa | 0 mm | - | - | - |
| 1777290715 | 21.11° C | 59% | 954.8 hPa | 0 mm | - | - | - |
| 1777290414 | 21.67° C | 59% | 955 hPa | 0 mm | - | - | - |
| 1777290184 | 21.67° C | 56% | 955 hPa | 0 mm | - | - | - |
| 1777289813 | 22.22° C | 58% | 955.1 hPa | 0 mm | - | - | - |
| 1777289514 | 21.67° C | 62% | 955.2 hPa | 0 mm | - | - | - |
| 1777289284 | 21.67° C | 61% | 955.2 hPa | 0 mm | - | - | - |
* Rain latest hour (hover to see other rain measurements)
** Current wind speed in m/s (hover to see current wind gust speed)